NOAA 16 DEB, 41149

Orbit data source: Space-Track

NOAA 16 DEB, 41149 is space debris in SSO originally from a launch on Thu, 21 Sep 2000 UTC launched from the Air Force Western Test Range (AFWTR). Debris objects in space refer to the collection of defunct objects orbiting the Earth. Examples of debris include non-operational satellites, rocket bodies, and fragments generated from explosions, collisions, or faulty payload assembly.

Loading next visibility...
Identifier
41149, 2000-055CG
Orbit
SSO
Country
Flag of USUS
Related business
Manufacturer
Unknown
Mission
Spacecraft
Bus & Motor
Unknown
Mass
Unknown
Launch date (UTC)
2000-09-21 (25 years ago)
Launch vehicle
Unknown
Launch site
Air Force Western Test Range (AFWTR)
Object type
Payload
Rocket body
Debris
Shape & HBR
Unknown shape, 0.1 m
Radar Cross Section
Small (<0.1 m²)

Expand to show TLE details & history
Last TLE update: 20 hours ago

TLE from 20 hours ago
0 NOAA 16 DEB
1 41149U 00055CG  25298.12168544  .00026927  00000-0  43013-2 0  9995
2 41149  98.9293 183.5889 0039746 309.2830  50.4851 14.71283072519022
Epoch: 2025-10-25T02:55Z
TLE epoch observation values (Epoch: 2025-10-25T02:55:13.622Z)
Latitude
Longitude
106.02536°
Altitude
642.223 km
Speed
7.546 km/s
True Right ascension
12h 14m 21s
True Declination
0° 00' 00"
Sunlit
Object was in daylight at epoch
Visualization orbit readout
Latitude
Unknown
Longitude
Unknown
Altitude
Unknown
Speed
Unknown
Apparent Right ascension
Unknown
Apparent Declination
Unknown
Sunlit
N/A
Visualization observer readout
Local Sidereal Time
18:34:54
Azimuth
Unknown
Elevation
Unknown
Doppler factor
Unknown
Orbital elements
Apogee altitude
682.026 km
Perigee altitude
626.126 km
Semi-major axis
7,032.213 km
Eccentricity
0.00397
Inclination
98.9293°
RAAN
183.5889°
Arg. of periapsis
309.283°
True anomaly
50.83758°
Mean anomaly
50.4851°
Eccentric anomaly
50.66123°
Mean motion
3.68049 °/min
Orbital period
97.81 mins
BSTAR
0.0043013
Loading maneuver chart data...
Computing Atmospheric mass density...

Documentation

Showing up to 5 results
|